Find OneWeb SL0096

NORAD ID: 45439 Int'l Des: 2020-020 Owner: ONEWEB Country: UK Constellation: oneweb operational
LEOCIRCULARPOLARONEWEB_TYPE

实时位置

正在加载3D地球...

关于 OneWeb SL0096

正在加载描述...

即将过境

Passes for default location (London). Set your location on the main map for personalized predictions.

高度历史

Loading altitude history...

两行轨道根数

1 45439U 20020R 26125.48322917 .00000528 00000-0 14551-2 0 9994
2 45439 87.8933 29.5513 0001858 79.6237 280.5101 13.11420338297063
Epoch: May 5, 2026 • Age: 9 hours

当前状态

高度 1247.9 km
速度 7.23 km/s
星下点 -87.68°S, 156.86°E
发射日期 Mar 21, 2020
运行时间 6.1 years
类型 internet

技术详情

分类 Payload
质量 148.00 kg
干质量 140.00 kg
总质量 148.00 kg
长度 1.30 m
直径 1.00 m
跨度 5.00 m
形状 Trapezoid+2 pan
制造商 ONEWUS
平台类型 ARROW
阶段状态 In Orbit
所有者/国家 ONEWEB/UK

Most Searched